Hebron, NE

5:05 AM CST on January 18, 2018 (GMT -0600)
Hebron Municipal

Weather History for KHJH - November, 2013

Change the Weather History Date:

Saturday, November 2, 2013

  Actual Average Record
Temperature  
Mean Temperature 48 °F -  
Max Temperature 61 °F 55 °F 81 °F (1990)
Min Temperature 34 °F 34 °F 8 °F (1991)
Degree Days  
Heating Degree Days 18    
Moisture  
Dew Point 29 °F    
Average Humidity 56    
Maximum Humidity 81    
Minimum Humidity 24    
Precipitation  
Precipitation 0.00 in - - ()
Sea Level Pressure  
Sea Level Pressure 30.14 in    
Wind  
Wind Speed 7 mph (West)    
Max Wind Speed 12 mph    
Max Gust Speed 17 mph    
Visibility 10 miles    
Events      
Averages and records for this station are not official NWS values.
T = Trace of Precipitation, MM = Missing Value Source: NWS Daily Summary

Daily Weather History Graph

Daily Weather History Graph

Search for Another Location

Airport or City:

Trip Planner

Search our weather history database for the weather conditions in past years. The results will help you decide how hot, cold, wet, or windy it might be!

Date:

Astronomy

Nov. 02, 2013 Rise Set
Actual Time 8:01 AM CDT 6:26 PM CDT
Civil Twilight 7:32 AM CDT 6:54 PM CDT
Nautical Twilight 7:00 AM CDT 7:26 PM CDT
Astronomical Twilight 6:29 AM CDT 7:58 PM CDT
Moon 6:59 AM CDT (11/2) 5:58 PM CDT (11/2)
Length of Visible Light 11h 21m
Length of Day
10h 24m
Waning Crescent, 1% of the Moon is Illuminated
Nov 2
Waning Crescent
Nov 3
New
Nov 9
First Quarter
Nov 17
Full
Nov 25
Last Quarter

Hourly Weather History & Observations

Time (CDT) Temp. Windchill Dew Point Humidity Pressure Visibility Wind Dir Wind Speed Gust Speed Precip Events Conditions
12:15 AM 40.6 °F 37.5 °F 32.2 °F 72% 30.09 in 10.0 mi NW 4.6 mph - N/A   Clear
12:35 AM 41.4 °F 36.8 °F 32.2 °F 70% 30.09 in 10.0 mi NW 6.9 mph - N/A   Clear
12:55 AM 40.6 °F 36.7 °F 32.0 °F 71% 30.09 in 10.0 mi WNW 5.8 mph - N/A   Clear
1:15 AM 40.5 °F 35.1 °F 32.0 °F 72% 30.09 in 10.0 mi NW 8.1 mph - N/A   Clear
1:35 AM 40.3 °F 37.1 °F 32.0 °F 72% 30.10 in 10.0 mi WNW 4.6 mph - N/A   Clear
1:55 AM 39.4 °F 36.1 °F 32.0 °F 75% 30.11 in 10.0 mi WNW 4.6 mph - N/A   Clear
2:15 AM 39.4 °F 34.5 °F 32.0 °F 75% 30.11 in 10.0 mi NW 6.9 mph - N/A   Clear
2:35 AM 40.1 °F 34.7 °F 32.0 °F 73% 30.12 in 10.0 mi NW 8.1 mph - N/A   Clear
2:55 AM 39.4 °F 33.8 °F 32.0 °F 75% 30.12 in 10.0 mi NW 8.1 mph - N/A   Clear
3:15 AM 39.2 °F 34.2 °F 31.8 °F 75% 30.12 in 10.0 mi NW 6.9 mph - N/A   Clear
3:35 AM 38.7 °F 34.3 °F 31.6 °F 76% 30.13 in 10.0 mi NW 5.8 mph - N/A   Clear
3:55 AM 38.7 °F 34.3 °F 31.6 °F 76% 30.13 in 10.0 mi NW 5.8 mph - N/A   Clear
4:15 AM 39.2 °F 34.2 °F 31.5 °F 74% 30.14 in 10.0 mi NW 6.9 mph - N/A   Clear
4:35 AM 39.6 °F 33.5 °F 31.3 °F 72% 30.15 in 10.0 mi NW 9.2 mph - N/A   Clear
4:55 AM 39.2 °F 34.2 °F 31.1 °F 73% 30.15 in 10.0 mi NW 6.9 mph - N/A   Clear
5:15 AM 37.6 °F 31.6 °F 30.7 °F 76% 30.15 in 10.0 mi NW 8.1 mph - N/A   Clear
5:35 AM 36.7 °F 31.2 °F 30.4 °F 78% 30.15 in 10.0 mi NW 6.9 mph - N/A   Clear
5:55 AM 36.0 °F 30.3 °F 30.2 °F 80% 30.16 in 10.0 mi WNW 6.9 mph - N/A   Clear
6:15 AM 35.8 °F 29.4 °F 29.8 °F 79% 30.17 in 10.0 mi WNW 8.1 mph - N/A   Clear
6:35 AM 35.6 °F 29.2 °F 29.8 °F 80% 30.18 in 10.0 mi NW 8.1 mph - N/A   Clear
6:55 AM 34.9 °F 29.9 °F 29.3 °F 80% 30.19 in 10.0 mi NW 5.8 mph - N/A   Clear
7:15 AM 34.5 °F 27.9 °F 29.3 °F 81% 30.19 in 10.0 mi WNW 8.1 mph - N/A   Clear
7:35 AM 34.2 °F 28.2 °F 28.9 °F 81% 30.19 in 10.0 mi NW 6.9 mph - N/A   Clear
7:55 AM 34.0 °F 28.8 °F 28.8 °F 81% 30.20 in 10.0 mi NW 5.8 mph - N/A   Clear
8:15 AM 34.9 °F 29.0 °F 28.4 °F 77% 30.20 in 10.0 mi NW 6.9 mph - N/A   Clear
8:35 AM 35.2 °F 28.8 °F 28.9 °F 78% 30.21 in 10.0 mi West 8.1 mph - N/A   Clear
8:55 AM 36.1 °F 29.9 °F 29.5 °F 77% 30.22 in 10.0 mi West 8.1 mph - N/A   Clear
9:15 AM 37.6 °F 32.3 °F 30.2 °F 75% 30.22 in 10.0 mi West 6.9 mph - N/A   Clear
9:35 AM 38.8 °F 33.8 °F 30.9 °F 73% 30.23 in 10.0 mi West 6.9 mph - N/A   Clear
9:55 AM 41.2 °F 36.0 °F 31.1 °F 67% 30.23 in 10.0 mi WNW 8.1 mph - N/A   Clear
10:15 AM 43.0 °F 37.7 °F 30.9 °F 62% 30.23 in 10.0 mi WNW 9.2 mph - N/A   Clear
10:35 AM 45.1 °F 40.8 °F 31.8 °F 60% 30.24 in 10.0 mi NW 8.1 mph - N/A   Clear
10:55 AM 46.9 °F - 32.0 °F 56% 30.24 in 10.0 mi NW 9.2 mph - N/A   Clear
12:35 PM 55.4 °F - 27.5 °F 34% 30.23 in 10.0 mi WNW 6.9 mph - N/A   Clear
12:55 PM 56.8 °F - 26.6 °F 31% 30.23 in 10.0 mi West 9.2 mph - N/A   Clear
1:15 PM 57.7 °F - 27.7 °F 32% 30.21 in 10.0 mi West 9.2 mph - N/A   Clear
1:35 PM 58.3 °F - 28.9 °F 33% 30.21 in 10.0 mi West 10.4 mph - N/A   Clear
1:55 PM 57.9 °F - 28.4 °F 32% 30.20 in 10.0 mi West 9.2 mph 17.3 mph N/A   Clear
2:15 PM 58.5 °F - 27.0 °F 30% 30.18 in 10.0 mi West 8.1 mph - N/A   Clear
2:35 PM 59.2 °F - 25.7 °F 28% 30.18 in 10.0 mi WNW 6.9 mph - N/A   Clear
2:55 PM 59.9 °F - 25.5 °F 27% 30.17 in 10.0 mi West 6.9 mph - N/A   Clear
3:15 PM 60.6 °F - 24.4 °F 25% 30.16 in 10.0 mi West 6.9 mph - N/A   Clear
3:35 PM 60.8 °F - 24.4 °F 25% 30.15 in 10.0 mi WSW 8.1 mph - N/A   Clear
3:55 PM 61.0 °F - 25.2 °F 25% 30.15 in 10.0 mi WSW 6.9 mph - N/A   Clear
4:15 PM 61.2 °F - 24.8 °F 25% 30.14 in 10.0 mi West 3.5 mph - N/A   Clear
4:35 PM 61.0 °F - 23.5 °F 24% 30.13 in 10.0 mi West 4.6 mph - N/A   Clear
4:55 PM 61.0 °F - 23.2 °F 24% 30.13 in 10.0 mi WSW 5.8 mph - N/A   Clear
5:15 PM 60.4 °F - 23.0 °F 24% 30.12 in 10.0 mi SW 4.6 mph - N/A   Clear
5:35 PM 59.9 °F - 23.0 °F 24% 30.12 in 10.0 mi SSW 5.8 mph - N/A   Clear
5:55 PM 58.1 °F - 24.8 °F 28% 30.11 in 10.0 mi Calm Calm - N/A   Clear
6:15 PM 55.0 °F - 26.8 °F 34% 30.11 in 10.0 mi South 4.6 mph - N/A   Clear
6:35 PM 52.0 °F - 28.8 °F 41% 30.10 in 10.0 mi South 5.8 mph - N/A   Clear
6:55 PM 49.6 °F - 28.8 °F 45% 30.11 in 10.0 mi South 6.9 mph - N/A   Clear
7:15 PM 48.2 °F - 30.2 °F 50% 30.10 in 10.0 mi South 6.9 mph - N/A   Clear
7:35 PM 47.7 °F - 30.2 °F 51% 30.10 in 10.0 mi South 6.9 mph - N/A   Clear
7:55 PM 48.0 °F - 30.6 °F 51% 30.11 in 10.0 mi South 6.9 mph - N/A   Clear
8:15 PM 47.3 °F - 30.4 °F 52% 30.10 in 10.0 mi South 6.9 mph - N/A   Clear
8:35 PM 47.5 °F - 30.0 °F 51% 30.10 in 10.0 mi South 8.1 mph - N/A   Clear
8:55 PM 47.7 °F - 29.3 °F 49% 30.10 in 10.0 mi South 9.2 mph - N/A   Clear
9:15 PM 47.3 °F - 28.9 °F 49% 30.09 in 10.0 mi South 10.4 mph - N/A   Clear
9:35 PM 46.8 °F - 28.8 °F 50% 30.08 in 10.0 mi South 9.2 mph - N/A   Clear
9:55 PM 46.6 °F - 28.9 °F 50% 30.08 in 10.0 mi South 9.2 mph - N/A   Clear
10:15 PM 46.2 °F 42.2 °F 29.1 °F 51% 30.08 in 10.0 mi South 8.1 mph - N/A   Clear
10:35 PM 46.0 °F 41.9 °F 29.1 °F 52% 30.08 in 10.0 mi South 8.1 mph - N/A   Clear
10:55 PM 46.0 °F 40.6 °F 29.3 °F 52% 30.08 in 10.0 mi South 11.5 mph - N/A   Clear
11:15 PM 46.4 °F 41.1 °F 29.3 °F 51% 30.07 in 10.0 mi South 11.5 mph - N/A   Clear
11:35 PM 44.8 °F 39.9 °F 29.7 °F 55% 30.06 in 10.0 mi SSE 9.2 mph - N/A   Clear
11:55 PM 44.6 °F 39.2 °F 29.8 °F 56% 30.06 in 10.0 mi SSE 10.4 mph 16.1 mph N/A   Clear